TimeCDT,TemperatureF,Dew PointF,Humidity,Sea Level PressureIn,VisibilityMPH,Wind Direction,Wind SpeedMPH,Gust SpeedMPH,PrecipitationIn,Events,Conditions,WindDirDegrees,DateUTC
12:52 AM,52.0,39.9,63,30.01,10.0,Calm,Calm,-,N/A,,Clear,0,2013-09-21 05:52:00
1:52 AM,51.1,41.0,68,29.99,10.0,South,8.1,-,N/A,,Clear,170,2013-09-21 06:52:00
2:52 AM,52.0,41.0,66,29.96,10.0,SSE,5.8,-,N/A,,Clear,160,2013-09-21 07:52:00
3:52 AM,46.9,41.0,80,29.94,10.0,ENE,5.8,-,N/A,,Clear,60,2013-09-21 08:52:00
4:52 AM,45.0,41.0,86,29.94,10.0,NE,5.8,-,N/A,,Clear,50,2013-09-21 09:52:00
5:52 AM,44.1,41.0,89,29.92,10.0,NE,4.6,-,N/A,,Clear,50,2013-09-21 10:52:00
6:52 AM,43.0,39.9,89,29.92,10.0,Calm,Calm,-,N/A,,Clear,0,2013-09-21 11:52:00
7:52 AM,41.0,39.0,93,29.94,10.0,Calm,Calm,-,N/A,,Clear,0,2013-09-21 12:52:00
8:52 AM,50.0,45.0,83,29.92,10.0,Calm,Calm,-,N/A,,Clear,0,2013-09-21 13:52:00
9:52 AM,60.1,48.9,67,29.90,10.0,SW,4.6,-,N/A,,Clear,220,2013-09-21 14:52:00
10:52 AM,68.0,51.1,55,29.88,10.0,Calm,Calm,-,N/A,,Clear,0,2013-09-21 15:52:00
11:52 AM,75.9,52.0,43,29.85,10.0,SE,6.9,-,N/A,,Clear,140,2013-09-21 16:52:00
12:52 PM,81.0,54.0,39,29.81,10.0,South,13.8,-,N/A,,Clear,180,2013-09-21 17:52:00
1:52 PM,84.0,54.0,35,29.78,10.0,South,17.3,-,N/A,,Clear,180,2013-09-21 18:52:00
2:52 PM,86.0,50.0,29,29.74,10.0,South,17.3,24.2,N/A,,Clear,170,2013-09-21 19:52:00
3:52 PM,87.1,48.0,26,29.73,10.0,South,19.6,27.6,N/A,,Clear,180,2013-09-21 20:52:00
4:52 PM,87.1,48.0,26,29.70,10.0,South,20.7,26.5,N/A,,Clear,180,2013-09-21 21:52:00
5:52 PM,86.0,46.9,26,29.69,10.0,South,19.6,27.6,N/A,,Clear,190,2013-09-21 22:52:00
6:52 PM,82.9,46.0,27,29.69,10.0,South,17.3,-,N/A,,Clear,180,2013-09-21 23:52:00
7:52 PM,78.1,46.0,32,29.70,10.0,South,13.8,-,N/A,,Clear,170,2013-09-22 00:52:00
8:52 PM,73.9,48.0,40,29.70,10.0,South,15.0,-,N/A,,Clear,170,2013-09-22 01:52:00
9:52 PM,72.0,50.0,46,29.68,10.0,South,15.0,-,N/A,,Clear,170,2013-09-22 02:52:00
10:52 PM,70.0,51.1,51,29.68,10.0,South,9.2,-,N/A,,Clear,170,2013-09-22 03:52:00
11:52 PM,66.9,51.1,57,29.67,10.0,SSW,6.9,-,N/A,,Clear,200,2013-09-22 04:52:00